[[{"header":{"parameterUnit":"m.s-1","parameterCategory":1,"la1":30.2991,"la2":30.254,"lo1":-89.0895,"lo2":-89.0444,"dy":0.0017,"dx":0.0017,"nx":28,"ny":28,"refTime":"2023-08-03T09:00:00:Z","depth":0,"parameterNumber":2,"parameterNumberName":"U-component_of_WINDS"},"data":[0,0,0,0,0,0,0,0,0,0,0,0,0,0,0,0,0,0,0,0,0,0,0,0,0,0,0,0,0,0,0,0,0,0,0,0,0,0,0,0,0,0,0,0,0,0,0,0,0,0,0,0,0,0,0,0,0,0,-0.122,-0.1222,0,-0.1378,-0.1379,-0.1381,-0.1557,-0.156,-0.1562,-0.1565,-0.1713,-0.1715,-0.1716,0,0,0,0,0,0,0,0,0,0,0,0,0,-0.1064,-0.1066,-0.122,-0.1222,-0.1224,-0.1377,-0.1379,-0.1382,-0.1557,-0.156,-0.1563,-0.1566,-0.1713,-0.1715,-0.1716,0,0,0,0,0,0,0,0,0,0,0,0,0,-0.1167,-0.1066,-0.122,-0.133,-0.1342,-0.1377,-0.138,-0.1382,-0.1556,-0.156,-0.1564,-0.1568,-0.1712,-0.1714,-0.1717,-0.1652,0,0,-0.1724,-0.1724,0,0,0,0,0,0,0,0,-0.1161,-0.1172,-0.1312,-0.1323,-0.1336,-0.1452,-0.1379,-0.1472,-0.1555,-0.1474,-0.1565,-0.157,-0.1622,-0.1632,-0.1653,-0.1659,-0.1665,-0.1724,-0.1725,-0.1726,-0.1727,0,0,0,0,0,0,0,-0.1154,-0.1167,-0.1282,-0.1314,-0.1328,-0.137,-0.1389,-0.1397,-0.1524,-0.1482,-0.1495,-0.1512,-0.1629,-0.165,-0.1657,-0.1667,-0.1724,-0.1726,-0.1727,-0.1728,-0.163,-0.1626,0,0,0,0,0,0,-0.1131,-0.116,-0.1277,-0.1287,-0.1257,-0.1369,-0.1391,-0.141,-0.1524,-0.1546,-0.1508,-0.1519,-0.1644,-0.1655,-0.1663,-0.1594,-0.1726,-0.1728,-0.1729,-0.1634,-0.1629,-0.1625,0,0,0,0,0,0,-0.1127,-0.114,-0.1271,-0.1227,-0.1247,-0.1368,-0.1389,-0.1411,-0.1432,-0.1545,-0.1567,-0.1506,-0.1648,-0.166,-0.1655,-0.1602,-0.1729,-0.1731,-0.1639,-0.1632,-0.1627,-0.1455,0,0,0,0,0,0,-0.1122,-0.1137,-0.1115,-0.1225,-0.1249,-0.1261,-0.1386,-0.1412,-0.1437,-0.1453,-0.1549,-0.1568,-0.1652,-0.165,-0.1657,-0.1607,-0.1733,-0.1644,-0.1636,-0.1629,-0.1466,-0.1444,-0.1426,0,0,0,0,0,-0.1116,-0.1057,-0.1113,-0.1126,-0.1224,-0.1257,-0.127,-0.1371,-0.1432,-0.141,-0.1483,-0.1565,-0.1609,-0.1648,-0.1657,-0.1607,-0.1647,-0.1638,-0.1629,-0.1475,-0.1449,-0.1426,0,0,0,0,0,0,-0.0931,-0.1073,-0.1136,-0.1113,-0.1173,-0.1287,-0.1261,-0.134,-0.1379,-0.1392,-0.1513,-0.1533,-0.1512,-0.1561,-0.1602,-0.1552,-0.164,-0.1632,-0.152,-0.1495,-0.1476,-0.1461,-0.1735,0,0,0,0,0,-0.0889,-0.0908,-0.103,-0.0997,-0.1025,-0.1138,-0.1156,-0.123,-0.1294,-0.1319,-0.1391,-0.1448,-0.1475,-0.1489,-0.152,-0.1477,-0.1499,-0.1448,-0.1428,-0.1411,-0.14,-0.1381,-0.1359,-0.1596,-0.1596,-0.1596,0,0,-0.0798,-0.0879,-0.0882,-0.0962,-0.1017,-0.1031,-0.1157,-0.1166,-0.1176,-0.1319,-0.1318,-0.1375,-0.1446,-0.1421,-0.1414,-0.1461,-0.1341,-0.1399,-0.1385,-0.1384,-0.1369,-0.1347,-0.1327,-0.159,-0.1591,-0.1592,0,0,-0.0641,-0.0705,-0.0685,-0.074,-0.0824,-0.0901,-0.0897,-0.1002,-0.1046,-0.1049,-0.1157,-0.1171,-0.1215,-0.1261,-0.129,-0.116,-0.1235,-0.1167,-0.1057,-0.1037,-0.1019,-0.1003,-0.0952,-0.0933,-0.1158,-0.1157,-0.1157,0,-0.0516,-0.0545,-0.0664,-0.0668,-0.0699,-0.0837,-0.0816,-0.0863,-0.0949,-0.0967,-0.1021,-0.1081,-0.1138,-0.1127,-0.1096,-0.1116,-0.1112,-0.1152,-0.1013,-0.0998,-0.0984,-0.0938,-0.0919,-0.1148,-0.1149,-0.115,-0.1151,0,-0.0387,-0.0406,-0.0379,-0.0466,-0.0496,-0.0487,-0.0602,-0.0618,-0.0692,-0.0763,-0.0765,-0.0841,-0.089,-0.0894,-0.0963,-0.0893,-0.0919,-0.0991,-0.1081,-0.095,-0.0908,-0.0892,-0.1134,-0.1138,-0.1141,-0.1143,0,0,-0.0106,-0.0268,-0.0255,-0.0297,-0.0404,-0.0419,-0.0418,-0.0472,-0.0481,-0.054,-0.0539,-0.0577,-0.0646,-0.0679,-0.0756,-0.074,-0.0628,-0.0814,-0.0818,-0.0773,-0.0552,-0.0493,-0.047,-0.0684,-0.0681,-0.0679,-0.0545,0,0.0036,0.0027,-0.0083,-0.0059,-0.0077,-0.0213,-0.0212,-0.0276,-0.0344,-0.0368,-0.0443,-0.0466,-0.0557,-0.0578,-0.0569,-0.0643,-0.0584,-0.0656,-0.0678,-0.0678,-0.065,-0.0449,-0.0386,-0.0255,-0.053,-0.0527,-0.0525,0,0.0205,0.015,0.0171,0.0059,0.0047,0.005,-0.0009,-0.0032,-0.0108,-0.0159,-0.02,-0.0291,-0.0295,-0.0386,-0.0392,-0.0438,-0.0455,-0.0494,-0.0492,-0.0491,-0.0588,-0.0438,-0.0217,-0.0194,-0.0501,-0.0503,-0.0505,0,0.0412,0.0343,0.0346,0.0313,0.0182,0.0187,0.0134,0.0052,0.0026,-0.0026,-0.0044,-0.0094,-0.012,-0.0156,-0.0256,-0.0314,-0.025,-0.0349,-0.0288,-0.0285,-0.0261,-0.026,-0.0033,-0.0283,-0.0283,-0.0284,-0.0284,0,0.0587,0.0607,0.0437,0.044,0.0457,0.0328,0.035,0.0283,0.0211,0.02,0.0078,0.0072,-0.0064,-0.0086,-0.0165,-0.0156,-0.0168,-0.0206,-0.0226,-0.0192,-0.0186,-0.0199,-0.0208,-0.0279,-0.028,-0.0281,-0.0281,0,0.0827,0.0712,0.0707,0.0579,0.0547,0.0567,0.0459,0.0458,0.0377,0.0365,0.0355,0.0232,0.02,0.0092,0.0035,-0.0019,0.0017,-0.0026,0.0043,0.0031,0.0099,0.0097,0.0332,0.0358,0.0087,0.0089,0.0091,0,0.095,0.096,0.0831,0.0812,0.0762,0.0734,0.0704,0.0575,0.055,0.046,0.0471,0.0426,0.0386,0.0341,0.0249,0.0204,0.0163,0.0247,0.0157,0.019,0.017,0.0174,0.0176,0.0271,0.0275,0.0278,0.028,0,0.1182,0.1123,0.1082,0.102,0.0986,0.0933,0.0873,0.0866,0.0722,0.07,0.0662,0.063,0.0566,0.0527,0.0465,0.0412,0.0325,0.0307,0.032,0.036,0.0401,0.0384,0.0103,0.0305,0.0303,0.0301,0.0299,0.0298,0.137,0.1373,0.128,0.1238,0.1177,0.1122,0.1114,0.1029,0.0994,0.093,0.0855,0.0827,0.0747,0.0654,0.0607,0.0585,0.0537,0.0555,0.0561,0.0569,0.0587,0.0397,0.0573,0.0572,0.0571,0.057,0.057,0,0.16,0.1532,0.1493,0.1409,0.1376,0.1285,0.1213,0.1193,0.1168,0.1097,0.1057,0.1013,0.0971,0.0872,0.0822,0.0823,0.0782,0.0815,0.0818,0.0808,0.063,0.0627,0.085,0.085,0.085,0.0849,0.0849,0.0849,0.1717,0.1716,0.1645,0.1613,0.1544,0.1511,0.1478,0.1427,0.137,0.1325,0.1287,0.1219,0.1138,0.1079,0.1038,0.1009,0.1,0.1048,0.1008,0.0846,0.082,0.0795,0.0791,0.1045,0.1045,0.1187,0.1189,0.119]},{"header":{"parameterUnit":"m.s-1","parameterCategory":1,"la1":30.2991,"la2":30.254,"lo1":-89.0895,"lo2":-89.0444,"dy":0.0017,"dx":0.0017,"nx":28,"ny":28,"refTime":"2023-08-03T09:00:00:Z","depth":0,"parameterNumber":3,"parameterNumberName":"V-component_of_WINDS"},"data":[0,0,0,0,0,0,0,0,0,0,0,0,0,0,0,0,0,0,0,0,0,0,0,0,0,0,0,0,0,0,0,0,0,0,0,0,0,0,0,0,0,0,0,0,0,0,0,0,0,0,0,0,0,0,0,0,0,0,0.421,0.4211,0,0.4301,0.4302,0.4303,0.4403,0.4404,0.4406,0.4407,0.4496,0.4497,0.4498,0,0,0,0,0,0,0,0,0,0,0,0,0,0.4119,0.412,0.421,0.4212,0.4213,0.4301,0.4302,0.4304,0.4403,0.4404,0.4406,0.4408,0.4495,0.4497,0.4498,0,0,0,0,0,0,0,0,0,0,0,0,0,0.4179,0.412,0.421,0.4273,0.4279,0.4301,0.4302,0.4304,0.4402,0.4404,0.4407,0.4409,0.4495,0.4497,0.4498,0.4464,0,0,0.4503,0.4503,0,0,0,0,0,0,0,0,0.4175,0.4182,0.4263,0.4269,0.4276,0.4343,0.4303,0.4357,0.4402,0.4355,0.4407,0.441,0.4443,0.4449,0.4461,0.4468,0.4472,0.4503,0.4504,0.4504,0.4505,0,0,0,0,0,0,0,0.4171,0.4179,0.4246,0.4264,0.4272,0.4295,0.4306,0.4313,0.4386,0.436,0.4367,0.4377,0.4447,0.4459,0.4464,0.4473,0.4503,0.4504,0.4505,0.4506,0.4455,0.4453,0,0,0,0,0,0,0.4158,0.4175,0.4243,0.4249,0.423,0.4295,0.4307,0.4319,0.4386,0.4398,0.4375,0.4381,0.4456,0.4462,0.4467,0.4431,0.4504,0.4506,0.4507,0.4457,0.4455,0.4452,0,0,0,0,0,0,0.4156,0.4163,0.424,0.4214,0.4225,0.4294,0.4307,0.432,0.4332,0.4397,0.441,0.4374,0.4458,0.4465,0.4464,0.4435,0.4506,0.4508,0.446,0.4457,0.4454,0.4357,0,0,0,0,0,0,0.4153,0.4162,0.415,0.4213,0.4226,0.4236,0.4305,0.432,0.4335,0.4344,0.44,0.4412,0.446,0.4461,0.4465,0.4439,0.4509,0.4463,0.4459,0.4455,0.4363,0.4351,0.4341,0,0,0,0,0,0.4149,0.4119,0.4149,0.4157,0.4214,0.4234,0.4241,0.4299,0.4332,0.4321,0.4363,0.441,0.4438,0.446,0.4466,0.4439,0.4465,0.446,0.4455,0.4369,0.4354,0.4341,0,0,0,0,0,0,0.405,0.4128,0.4163,0.4152,0.4186,0.4251,0.4238,0.4281,0.4305,0.4312,0.4381,0.4393,0.4383,0.4411,0.4435,0.4409,0.4458,0.4454,0.4391,0.4377,0.4366,0.4358,0.451,0,0,0,0,0,0.4027,0.4038,0.4106,0.409,0.4105,0.4168,0.4179,0.422,0.4257,0.4271,0.4313,0.4346,0.4362,0.4371,0.439,0.4369,0.4381,0.4353,0.4341,0.4332,0.4327,0.4316,0.4304,0.4436,0.4436,0.4436,0,0,0.3979,0.4023,0.4026,0.4071,0.4102,0.411,0.4179,0.4186,0.4192,0.4272,0.4274,0.4305,0.4346,0.4334,0.4331,0.4358,0.4294,0.4325,0.4317,0.4318,0.431,0.4297,0.4286,0.4432,0.4433,0.4434,0,0,0.3896,0.3931,0.3922,0.3952,0.3998,0.404,0.4038,0.4096,0.4121,0.4124,0.4184,0.4192,0.4219,0.4246,0.4263,0.419,0.4234,0.4194,0.4134,0.4123,0.4113,0.4104,0.4076,0.4066,0.4189,0.4189,0.4189,0,0.383,0.3847,0.3911,0.3914,0.3931,0.4005,0.3995,0.4021,0.407,0.4079,0.4109,0.4144,0.4177,0.4172,0.4154,0.4166,0.4164,0.4187,0.4109,0.4101,0.4094,0.4068,0.4058,0.4184,0.4184,0.4185,0.4185,0,0.3764,0.3774,0.3761,0.3808,0.3824,0.382,0.3881,0.389,0.393,0.3968,0.397,0.4012,0.404,0.4042,0.4081,0.4043,0.4057,0.4097,0.4148,0.4075,0.4052,0.4043,0.4176,0.4178,0.418,0.4181,0,0,0.362,0.3703,0.3697,0.3719,0.3775,0.3784,0.3783,0.3812,0.3817,0.3848,0.3848,0.3869,0.3906,0.3925,0.3968,0.3958,0.3896,0.3999,0.4001,0.3977,0.3855,0.3824,0.3812,0.3927,0.3925,0.3924,0.3851,0,0.3546,0.355,0.3608,0.3595,0.3605,0.3675,0.3674,0.3708,0.3744,0.3757,0.3796,0.381,0.3858,0.387,0.3864,0.3905,0.3873,0.3911,0.3925,0.3925,0.3911,0.38,0.3767,0.3697,0.3843,0.3842,0.3841,0,0.3461,0.3488,0.3476,0.3533,0.3539,0.3538,0.3568,0.358,0.3619,0.3646,0.3667,0.3716,0.3717,0.3766,0.3768,0.3793,0.3803,0.3823,0.3822,0.3824,0.3877,0.3798,0.3676,0.3664,0.3827,0.3829,0.3829,0,0.3355,0.3389,0.3387,0.3404,0.347,0.3467,0.3494,0.3536,0.3549,0.3576,0.3585,0.3611,0.3624,0.3642,0.3696,0.3727,0.3691,0.3745,0.3712,0.371,0.37,0.37,0.3576,0.3708,0.3708,0.3709,0.3709,0,0.3266,0.3256,0.334,0.3338,0.3329,0.3394,0.3382,0.3416,0.3453,0.3457,0.352,0.3523,0.3594,0.3605,0.3647,0.3641,0.3647,0.3668,0.3679,0.3661,0.3658,0.3667,0.3673,0.3706,0.3706,0.3707,0.3707,0,0.3146,0.3203,0.3204,0.3267,0.3283,0.3273,0.3326,0.3326,0.3367,0.3372,0.3377,0.3439,0.3455,0.3511,0.354,0.3568,0.3548,0.3571,0.3535,0.3542,0.3506,0.3507,0.3382,0.3368,0.351,0.3508,0.3507,0,0.3085,0.3079,0.3142,0.315,0.3175,0.3187,0.3202,0.3266,0.3278,0.3322,0.3316,0.3337,0.3357,0.3379,0.3426,0.3448,0.3471,0.3425,0.3474,0.3457,0.3468,0.3467,0.3466,0.3414,0.3412,0.341,0.3409,0,0.297,0.2998,0.3017,0.3045,0.3061,0.3086,0.3115,0.3118,0.3189,0.3199,0.3217,0.3232,0.3263,0.3282,0.3312,0.3339,0.3384,0.3394,0.3387,0.3368,0.3347,0.3356,0.3504,0.3396,0.3397,0.3398,0.3399,0.3399,0.2877,0.2874,0.2918,0.2936,0.2965,0.299,0.2993,0.3034,0.305,0.3081,0.3117,0.313,0.3169,0.3214,0.3237,0.3247,0.3273,0.3263,0.3261,0.3257,0.3248,0.3347,0.3253,0.3253,0.3254,0.3254,0.3255,0,0.2763,0.2795,0.2812,0.285,0.2865,0.2909,0.2943,0.2951,0.2962,0.2995,0.3014,0.3033,0.3052,0.3101,0.3125,0.3123,0.3144,0.3127,0.3126,0.3132,0.3224,0.3227,0.3109,0.3109,0.3109,0.3109,0.3109,0.3109,0.2706,0.2704,0.2737,0.2749,0.2781,0.2794,0.281,0.2833,0.2859,0.2878,0.2895,0.2928,0.2967,0.2993,0.3012,0.3026,0.3031,0.3006,0.3026,0.3111,0.3125,0.3138,0.3141,0.3007,0.3007,0.2933,0.2932,0.2931]}]]